Temp_Advection
nan nan nan nan nan nan nan nan nan nan nan nan nan nan nan nan nan nan nan nan nan nan nan nan nan nan nan
nan 0 0 0 0 -0 -0 -0 -0 -0 -0 -0 -0 -1 -1 -1 -1 -1 -1 -1 -1 -1 -1 -1 -1 -1 nan
nan 0 0 0 0 0 -0 -0 -0 -0 -0 -1 -0 -0 -1 -1 -0 -1 -1 -1 -1 -1 -1 -1 -1 -1 nan
nan 0 0 0 0 0 0 -0 -0 -0 -0 -0 -0 -0 -0 -0 -1 -1 -1 -1 -1 -1 -1 -1 -1 -1 nan
nan 0 0 0 0 0 0 -0 -0 -0 -0 -0 -0 -0 -0 -0 -0 -1 -1 -1 -1 -1 -1 -1 -1 -1 nan
nan 0 0 0 0 0 0 0 0 -0 -0 -0 -0 -0 -0 -0 0 -0 -0 -1 -1 -1 -1 -1 -1 -1 nan
nan 0 0 0 0 0 0 0 -0 -0 -0 -0 -0 -0 -0 -0 -0 -0 -0 -0 -0 -1 -1 -1 -0 -0 nan
nan 0 0 0 0 0 0 0 -0 -0 -0 0 -0 -0 -0 -0 -0 -0 -0 -0 -0 -0 -1 -1 -1 -1 nan
nan 1 0 0 0 0 0 0 0 -0 -0 0 -0 -0 -0 -0 -0 -0 -0 -0 -0 -0 -0 -1 -1 -1 nan
nan 0 0 0 0 0 0 0 0 -0 -0 -0 0 -0 -0 -0 -0 -0 -0 -0 -0 -0 -0 -0 -1 -1 nan
nan 0 0 0 0 0 0 0 0 -0 -0 -0 -0 -0 0 0 -1 -0 -0 -0 -0 -0 -0 -0 -0 -0 nan
nan 0 -0 -0 -0 0 0 0 -0 0 -0 -0 -0 -0 -0 0 -0 -0 -1 -0 -0 -1 -1 -0 -0 -0 nan
nan -0 -0 -0 0 0 0 0 0 0 0 0 0 0 0 0 0 -0 -0 -0 -0 -0 -1 -0 -0 -1 nan
nan -0 -0 0 0 0 0 0 0 0 -0 -0 0 -0 0 0 0 0 0 -0 -0 -0 -0 -1 -0 -0 nan
nan -0 0 0 0 0 0 -0 0 0 0 -0 -0 -0 0 0 0 0 0 0 0 0 -0 -0 -0 0 nan
nan 0 0 0 0 0 -0 0 0 -0 -0 -0 -0 -0 -0 -0 0 0 0 0 0 0 0 -0 -0 0 nan
nan nan nan nan nan nan nan nan nan nan nan nan nan nan nan nan nan nan nan nan nan nan nan nan nan nan nan
Wind_Speed
13 11 9 7 6 6 7 8 10 12 14 15 17 17 18 18 18 19 21 22 23 23 23 23 24 25 25
14 12 9 7 6 6 6 8 9 12 14 15 16 16 17 17 18 20 23 23 24 24 24 24 24 25 25
14 12 10 8 7 6 6 7 8 10 11 13 14 14 15 15 18 20 21 23 24 24 24 24 24 24 24
14 13 11 9 8 6 6 7 6 8 9 10 11 13 14 14 17 18 19 21 23 24 25 25 25 24 23
16 14 12 10 8 6 6 5 6 6 8 9 10 12 13 14 15 17 17 19 22 24 24 25 25 25 23
16 15 13 11 9 7 5 3 2 9 8 8 10 10 13 14 15 15 17 21 22 23 24 25 25 25 24
15 14 13 11 9 7 5 4 5 7 8 5 8 9 11 12 12 11 20 21 21 22 22 24 25 24 24
16 14 13 12 9 7 5 4 5 6 6 4 9 11 9 8 6 18 16 17 18 21 21 22 24 24 22
15 13 12 10 8 6 3 3 2 4 5 8 8 12 7 2 10 13 14 16 17 18 20 22 23 24 22
16 13 11 9 6 5 5 4 4 2 7 9 8 11 5 4 13 13 17 16 15 15 18 20 22 24 24
16 14 12 10 8 8 7 7 5 4 7 6 7 8 7 12 13 13 16 17 15 18 18 19 20 21 24
16 14 13 12 11 10 9 7 5 4 5 5 6 8 10 12 10 16 16 16 15 20 21 21 20 20 19
17 15 15 14 13 11 10 8 6 5 4 3 5 7 10 11 13 15 18 15 16 19 22 21 21 22 23
17 15 17 15 14 13 11 9 7 6 5 4 5 7 8 10 13 13 13 13 18 20 22 20 19 18 20
20 19 17 16 16 14 13 10 9 7 6 5 6 7 9 10 10 11 13 14 17 20 21 21 19 18 20
21 19 19 18 16 15 13 11 10 9 7 6 6 7 6 5 8 12 13 17 19 19 18 20 22 20 21
21 21 20 19 18 17 15 13 11 10 8 7 7 8 8 8 9 9 14 17 20 20 20 20 24 26 22
Wind_Direction
236 243 263 283 302 315 326 334 336 340 343 346 350 353 358 359 360 354 350 347 347 347 342 338 335 335 336
234 238 247 260 278 297 316 325 331 334 339 344 347 352 356 359 355 354 351 348 348 346 343 340 339 337 334
236 239 243 249 264 285 304 318 324 329 339 341 345 354 357 356 349 351 349 349 347 350 347 343 341 339 335
232 232 235 241 249 266 285 301 313 327 338 344 348 350 353 353 344 344 346 346 350 354 353 347 344 341 338
221 223 228 234 238 252 268 296 305 319 336 333 338 341 344 346 339 339 342 345 346 350 351 348 349 347 341
225 225 230 234 243 254 269 285 271 311 331 324 337 344 342 340 336 338 344 342 342 344 345 344 347 349 346
231 228 227 229 234 244 258 283 296 309 328 325 333 345 339 328 332 336 336 334 336 338 340 340 339 346 346
223 224 222 223 223 231 248 279 303 318 335 325 328 335 339 329 334 334 337 336 334 333 339 341 337 341 347
219 216 219 224 222 232 256 288 283 291 307 342 330 339 354 359 333 338 347 344 340 336 338 341 339 338 346
213 215 215 221 221 228 237 237 260 299 293 344 341 351 349 318 344 353 353 352 348 344 343 342 343 344 346
214 215 216 224 229 227 225 231 247 262 293 330 340 352 351 329 348 352 356 353 354 351 351 351 347 349 347
208 208 213 221 227 223 227 237 241 255 289 323 341 352 350 353 343 349 355 355 353 351 352 353 350 349 352
207 209 215 221 221 221 228 227 233 248 264 300 331 344 349 348 340 348 347 355 349 348 348 350 350 350 347
206 209 217 217 215 219 219 215 222 240 254 288 318 334 342 345 343 346 349 341 343 344 343 344 347 346 346
212 219 220 216 215 216 214 212 212 221 245 278 301 317 330 337 339 340 342 345 344 346 344 342 343 342 341
221 223 220 214 216 216 214 214 217 220 231 248 273 293 313 324 335 338 343 341 342 345 345 337 338 344 340
225 222 217 216 217 218 218 219 223 232 244 262 284 302 317 320 329 340 337 341 337 338 336 334 333 337 340
Height
1579 1579 1579 1579 1579 1578 1577 1576 1574 1572 1570 1568 1566 1563 1560 1557 1555 1551 1548 1546 1543 1539 1535 1531 1527 1523 1520
1576 1577 1576 1576 1576 1576 1575 1574 1572 1570 1568 1566 1564 1561 1559 1556 1553 1549 1546 1544 1541 1537 1534 1530 1526 1522 1518
1573 1573 1573 1573 1573 1573 1572 1571 1570 1568 1566 1564 1562 1560 1557 1555 1551 1548 1545 1542 1539 1536 1532 1529 1525 1521 1517
1569 1570 1570 1570 1570 1571 1570 1568 1567 1566 1564 1562 1560 1558 1556 1554 1550 1547 1544 1541 1538 1535 1531 1527 1523 1519 1515
1565 1565 1566 1566 1567 1567 1567 1566 1565 1564 1563 1561 1560 1557 1555 1552 1549 1546 1543 1540 1537 1534 1530 1526 1522 1518 1514
1561 1561 1562 1563 1564 1564 1564 1563 1564 1563 1561 1560 1558 1556 1553 1550 1547 1544 1542 1539 1536 1533 1529 1524 1521 1517 1513
1558 1558 1558 1560 1560 1561 1561 1560 1560 1559 1558 1557 1556 1554 1552 1549 1546 1544 1541 1538 1535 1531 1527 1524 1520 1516 1513
1554 1555 1555 1557 1557 1558 1558 1558 1557 1557 1556 1555 1554 1552 1550 1547 1545 1543 1539 1536 1533 1529 1526 1522 1518 1515 1512
1550 1551 1552 1553 1554 1554 1555 1555 1556 1556 1553 1553 1552 1549 1547 1546 1545 1541 1538 1535 1531 1528 1524 1521 1517 1513 1511
1546 1548 1548 1549 1550 1551 1552 1553 1553 1553 1552 1551 1549 1547 1547 1544 1542 1539 1536 1533 1530 1527 1523 1520 1516 1512 1509
1543 1545 1545 1546 1547 1548 1549 1550 1550 1550 1549 1548 1547 1546 1545 1542 1540 1538 1535 1532 1529 1526 1522 1519 1516 1512 1508
1540 1541 1542 1543 1544 1545 1546 1547 1547 1547 1547 1546 1546 1544 1543 1541 1540 1537 1535 1531 1528 1525 1521 1518 1515 1512 1510
1535 1537 1538 1540 1541 1542 1543 1544 1544 1544 1544 1544 1544 1543 1541 1540 1538 1536 1532 1530 1528 1524 1521 1517 1514 1511 1507
1530 1533 1534 1536 1538 1539 1540 1541 1541 1542 1542 1542 1541 1541 1540 1539 1537 1535 1533 1530 1526 1524 1520 1517 1514 1512 1509
1525 1527 1530 1532 1534 1535 1537 1538 1539 1540 1540 1539 1539 1539 1538 1537 1535 1534 1531 1529 1526 1523 1519 1516 1514 1511 1508
1521 1523 1526 1528 1530 1532 1533 1534 1536 1537 1537 1537 1537 1537 1537 1536 1534 1532 1530 1527 1525 1522 1519 1515 1512 1510 1507
1516 1519 1522 1523 1526 1528 1529 1531 1532 1533 1533 1534 1533 1533 1533 1532 1532 1530 1528 1526 1523 1520 1518 1515 1511 1507 1504